North Canton, OH

12:40 PM EST on January 24, 2017 (GMT -0500)
Akron-Canton Regional

Weather History for KCAK - July, 2012

Change the Weather History Date:

Wednesday, July 25, 2012

  Actual Average Record
Temperature  
Mean Temperature 72 °F 72 °F  
Max Temperature 87 °F 82 °F 96 °F (1940)
Min Temperature 56 °F 62 °F 48 °F (1953)
Degree Days  
Heating Degree Days 0 0  
Month to date heating degree days 0 0  
Since 1 June heating degree days 26 49  
Since 1 July heating degree days 0 0  
Cooling Degree Days 7 7  
Month to date cooling degree days 327 175  
Year to date cooling degree days 677 352  
Since 1 June cooling degree days 531 310  
Growing Degree Days 21 (Base 50)    
Moisture  
Dew Point 54 °F    
Average Humidity 68    
Maximum Humidity 86    
Minimum Humidity 49    
Precipitation  
Precipitation 0.00 in 0.13 in 0.86 in (1999)
Month to date precipitation 2.55 3.31  
Year to date precipitation 16.58 22.87  
Snow  
Snow 0.00 in 0.00 in - ()
Month to date snowfall 0.0 0.0  
Since 1 June snowfall 0.0 0.0  
Since 1 July snowfall 0.0 0.0  
Snow Depth 0.00 in    
Sea Level Pressure  
Sea Level Pressure 29.91 in    
Wind  
Wind Speed 8 mph (South)    
Max Wind Speed 15 mph    
Max Gust Speed 20 mph    
Visibility 10 miles    
Events      
T = Trace of Precipitation, MM = Missing Value Source: NWS Daily Summary

Daily Weather History Graph

Daily Weather History Graph

Search for Another Location

Airport or City:

Trip Planner

Search our weather history database for the weather conditions in past years. The results will help you decide how hot, cold, wet, or windy it might be!

Date:

Astronomy

Jul. 25, 2012 Rise Set
Actual Time 6:15 AM EDT 8:48 PM EDT
Civil Twilight 5:44 AM EDT 9:19 PM EDT
Nautical Twilight 5:05 AM EDT 9:58 PM EDT
Astronomical Twilight 4:20 AM EDT 10:42 PM EDT
Moon 1:23 PM EDT (7/25) No Moon Set
Length of Visible Light 15h 35m
Length of Day
14h 32m
Waxing Crescent, 42% of the Moon is Illuminated
Jul 25
Waxing Crescent
Jul 26
First Quarter
Aug 1
Full
Aug 9
Last Quarter
Aug 17
New

Hourly Weather History & Observations

Time (EDT) Temp. Heat Index Dew Point Humidity Pressure Visibility Wind Dir Wind Speed Gust Speed Precip Events Conditions
12:51 AM 64.9 °F - 51.1 °F 61% 29.96 in 10.0 mi North 9.2 mph - N/A   Clear
1:51 AM 62.1 °F - 51.1 °F 67% 29.96 in 10.0 mi North 5.8 mph - N/A   Clear
2:51 AM 59.0 °F - 52.0 °F 78% 29.96 in 10.0 mi North 5.8 mph - N/A   Clear
3:51 AM 60.1 °F - 54.0 °F 80% 29.96 in 10.0 mi NNE 5.8 mph - N/A   Clear
4:51 AM 57.9 °F - 54.0 °F 87% 29.97 in 10.0 mi Calm Calm - N/A   Clear
5:51 AM 57.0 °F - 53.1 °F 87% 29.98 in 10.0 mi Calm Calm - N/A   Clear
6:51 AM 60.1 °F - 55.0 °F 83% 29.99 in 10.0 mi SE 3.5 mph - N/A   Clear
7:51 AM 64.9 °F - 55.9 °F 73% 29.99 in 10.0 mi SE 3.5 mph - N/A   Partly Cloudy
8:51 AM 69.1 °F - 55.0 °F 61% 29.99 in 10.0 mi SE 10.4 mph - N/A   Partly Cloudy
9:51 AM 73.0 °F - 53.1 °F 49% 29.99 in 10.0 mi SSE 10.4 mph - N/A   Clear
10:51 AM 75.0 °F - 52.0 °F 44% 29.99 in 10.0 mi South 10.4 mph 16.1 mph N/A   Clear
11:51 AM 77.0 °F - 52.0 °F 42% 29.98 in 10.0 mi South 9.2 mph - N/A   Partly Cloudy
12:51 PM 80.1 °F - 51.1 °F 36% 29.96 in 10.0 mi SW 10.4 mph - N/A   Partly Cloudy
1:51 PM 81.0 °F - 50.0 °F 34% 29.93 in 10.0 mi SW 10.4 mph - N/A   Partly Cloudy
2:51 PM 82.9 °F - 50.0 °F 32% 29.89 in 10.0 mi South 9.2 mph - N/A   Scattered Clouds
3:51 PM 86.0 °F - 48.9 °F 28% 29.88 in 10.0 mi SSW 11.5 mph 17.3 mph N/A   Scattered Clouds
4:51 PM 86.0 °F - 48.9 °F 28% 29.85 in 10.0 mi South 10.4 mph - N/A   Mostly Cloudy
5:51 PM 86.0 °F 84.0 °F 53.1 °F 32% 29.83 in 10.0 mi South 10.4 mph - N/A   Mostly Cloudy
6:51 PM 84.9 °F 83.6 °F 55.0 °F 36% 29.81 in 10.0 mi South 11.5 mph - N/A   Mostly Cloudy
7:51 PM 82.9 °F 82.4 °F 57.0 °F 41% 29.80 in 8.0 mi SSW 11.5 mph - N/A   Scattered Clouds
8:51 PM 81.0 °F 81.1 °F 57.9 °F 45% 29.79 in 10.0 mi SSW 10.4 mph - N/A   Scattered Clouds
9:51 PM 79.0 °F - 57.9 °F 48% 29.79 in 6.0 mi South 10.4 mph - N/A   Haze
10:51 PM 78.1 °F - 59.0 °F 52% 29.77 in 10.0 mi South 10.4 mph - N/A   Mostly Cloudy
11:51 PM 78.1 °F - 62.1 °F 58% 29.73 in 10.0 mi SSW 11.5 mph - N/A   Mostly Cloudy